CW6261 Weather Reports


Display with metric or nautical units.
time (UTC)temp
F
wind
direction
speed
MPH
gust
MPH
rain 1hr
in
rain 24hr
in
rain mn
in
humidity
%
barometer
mb
20260503024202 60 44 0.0 0.0 0.00 0.00 0.00 73 102.0
20260503023702 60 44 0.0 0.0 0.00 0.00 0.00 72 102.0
20260503023203 61 124 0.0 0.0 0.00 0.00 0.00 71 101.9
20260503022702 61 129 0.0 0.0 0.00 0.00 0.00 71 101.9
20260503022202 61 224 0.0 0.0 0.00 0.00 0.00 71 101.9
20260503021702 61 224 0.0 0.0 0.00 0.00 0.00 70 101.9
20260503021202 61 242 0.0 0.0 0.00 0.00 0.00 68 101.9
20260503020702 62 133 0.0 0.0 0.00 0.00 0.00 63 101.9
20260503020202 62 117 0.0 0.0 0.00 0.00 0.00 66 101.9
20260503015202 63 135 0.0 0.0 0.00 0.00 0.00 65 101.9
20260503013702 65 129 0.0 0.0 0.00 0.00 0.00 60 101.9
20260503012702 66 135 0.0 0.0 0.00 0.00 0.00 53 101.9
20260503011702 68 129 0.0 0.0 0.00 0.00 0.00 51 101.9
20260503011202 68 124 0.0 0.0 0.00 0.00 0.00 50 101.9
20260503010702 69 103 0.0 0.0 0.00 0.00 0.00 49 101.9
20260503010202 70 119 0.0 1.0 0.00 0.00 0.00 47 101.9
20260503005702 71 76 0.0 1.0 0.00 0.00 0.00 46 101.9
20260503005203 71 143 0.0 1.0 0.00 0.00 0.00 46 101.9
20260503004702 70 224 0.0 1.0 0.00 0.00 0.00 45 101.9
20260503004202 71 135 0.0 1.0 0.00 0.00 0.00 45 101.9
20260503003703 71 91 1.0 1.0 0.00 0.00 0.00 43 101.9
20260503003202 72 135 0.0 0.0 0.00 0.00 0.00 43 101.8
20260503002702 71 315 0.0 1.0 0.00 0.00 0.00 44 101.9
20260503002202 72 128 0.0 1.0 0.00 0.00 0.00 41 101.9
20260503001702 72 125 0.0 1.0 0.00 0.00 0.00 41 101.9
20260503001202 72 120 0.0 1.0 0.00 0.00 0.00 41 101.9
20260503000702 72 128 1.0 2.0 0.00 0.00 0.00 40 101.9
20260503000204 72 99 2.0 2.0 0.00 0.00 0.00 39 101.8
20260502235702 73 29 0.0 2.0 0.00 0.00 0.00 39 101.8
20260502235202 73 242 0.0 3.0 0.00 0.00 0.00 38 101.8
20260502234703 73 255 0.0 2.0 0.00 0.00 0.00 38 101.8
20260502234203 73 76 1.0 2.0 0.00 0.00 0.00 38 101.8
20260502233702 73 152 0.0 4.0 0.00 0.00 0.00 38 101.8
20260502233202 73 146 0.0 2.0 0.00 0.00 0.00 39 101.8
20260502232701 72 131 1.0 1.0 0.00 0.00 0.00 39 101.8
20260502232202 73 343 0.0 3.0 0.00 0.00 0.00 38 101.8
20260502231703 73 53 1.0 5.0 0.00 0.00 0.00 39 101.8
20260502230202 72 48 2.0 2.0 0.00 0.00 0.00 38 101.8
20260502225204 72 94 1.0 2.0 0.00 0.00 0.00 39 101.8
20260502224702 73 25 2.0 3.0 0.00 0.00 0.00 39 101.8
20260502224204 72 294 0.0 3.0 0.00 0.00 0.00 38 101.8
20260502223702 72 38 1.0 3.0 0.00 0.00 0.00 38 101.8
20260502223202 72 28 1.0 2.0 0.00 0.00 0.00 39 101.8
20260502222702 72 88 1.0 5.0 0.00 0.00 0.00 38 101.8
20260502222202 73 74 2.0 4.0 0.00 0.00 0.00 39 101.8
20260502221702 73 0 1.0 4.0 0.00 0.00 0.00 38 101.9
20260502221203 71 161 0.0 1.0 0.00 0.00 0.00 40 101.9
20260502220702 72 54 1.0 5.0 0.00 0.00 0.00 39 101.9
20260502220203 72 192 1.0 3.0 0.00 0.00 0.00 38 101.8
20260502215703 72 355 1.0 3.0 0.00 0.00 0.00 39 101.8
20260502214702 71 83 2.0 4.0 0.00 0.00 0.00 43 101.8
20260502214202 73 129 2.0 3.0 0.00 0.00 0.00 41 101.8
20260502213702 72 63 2.0 4.0 0.00 0.00 0.00 40 101.8
20260502212702 72 346 2.0 4.0 0.00 0.00 0.00 41 101.9
20260502212202 72 85 2.0 6.0 0.00 0.00 0.00 39 101.9
20260502211202 73 106 2.0 3.0 0.00 0.00 0.00 38 101.9
20260502210702 73 87 2.0 5.0 0.00 0.00 0.00 38 101.9
20260502210202 72 107 2.0 4.0 0.00 0.00 0.00 39 101.9
20260502205702 72 35 1.0 6.0 0.00 0.00 0.00 39 101.9
20260502205202 73 69 2.0 11.0 0.00 0.00 0.00 39 101.9
20260502204703 72 47 5.0 9.0 0.00 0.00 0.00 39 101.9
20260502204202 72 246 2.0 7.0 0.00 0.00 0.00 36 101.9
20260502203702 73 15 5.0 6.0 0.00 0.00 0.00 37 101.9
20260502203202 73 47 3.0 4.0 0.00 0.00 0.00 40 102.0
20260502201702 72 6 2.0 5.0 0.00 0.00 0.00 38 102.0
20260502201202 71 62 0.0 4.0 0.00 0.00 0.00 38 102.0
20260502200202 72 40 2.0 5.0 0.00 0.00 0.00 37 101.9
20260502195703 72 39 2.0 4.0 0.00 0.00 0.00 37 101.9
20260502195203 72 227 0.0 4.0 0.00 0.00 0.00 39 101.9
20260502194702 71 32 1.0 7.0 0.00 0.00 0.00 37 101.9
20260502194202 71 108 2.0 6.0 0.00 0.00 0.00 39 101.9
20260502193702 70 161 1.0 3.0 0.00 0.00 0.00 41 101.9
20260502193203 70 52 3.0 10.0 0.00 0.00 0.00 40 102.0
20260502192702 70 28 1.0 7.0 0.00 0.00 0.00 43 102.0
20260502192202 70 107 2.0 4.0 0.00 0.00 0.00 41 102.0
20260502191702 71 159 2.0 6.0 0.00 0.00 0.00 41 102.0
20260502191202 71 40 2.0 6.0 0.00 0.00 0.00 45 102.0
20260502190702 69 297 2.0 4.0 0.00 0.00 0.00 43 102.0
20260502190202 70 347 2.0 9.0 0.00 0.00 0.00 45 102.0
20260502185702 69 278 2.0 6.0 0.00 0.00 0.00 44 102.0
20260502185202 70 45 4.0 6.0 0.00 0.00 0.00 43 102.0
20260502183702 69 15 1.0 5.0 0.00 0.00 0.00 46 102.0
20260502183202 69 34 2.0 7.0 0.00 0.00 0.00 46 102.2
20260502182703 68 356 2.0 5.0 0.00 0.00 0.00 47 102.2
20260502182202 70 55 3.0 8.0 0.00 0.00 0.00 47 102.2
20260502181702 69 1 1.0 4.0 0.00 0.00 0.00 48 102.2
20260502180702 68 42 4.0 7.0 0.00 0.00 0.00 50 102.2
20260502180202 67 201 0.0 7.0 0.00 0.00 0.00 51 102.2
20260502170202 66 45 8.0 8.0 0.00 0.00 0.00 56 102.2
20260502164202 64 86 1.0 5.0 0.00 0.00 0.00 56 102.2
20260502163702 65 50 5.0 11.0 0.00 0.00 0.00 52 102.2
20260502163202 65 358 1.0 4.0 0.00 0.00 0.00 54 102.3
20260502162202 64 25 2.0 6.0 0.00 0.00 0.00 55 102.3
20260502161202 64 15 2.0 9.0 0.00 0.00 0.00 54 102.3
20260502160702 63 349 2.0 5.0 0.00 0.00 0.00 57 102.3
20260502160202 63 51 6.0 6.0 0.00 0.00 0.00 56 102.2
20260502151702 60 294 2.0 6.0 0.00 0.00 0.00 62 102.3
20260502151202 60 78 2.0 9.0 0.00 0.00 0.00 62 102.3
20260502150702 60 17 3.0 9.0 0.00 0.00 0.00 62 102.3
20260502150201 60 8 3.0 7.0 0.00 0.00 0.00 67 102.2
20260502130702 52 46 2.0 3.0 0.00 0.00 0.00 88 102.2
20260502130202 51 333 1.0 5.0 0.00 0.00 0.00 89 102.0
20260502123702 49 317 1.0 3.0 0.00 0.00 0.00 96 102.0
20260502123202 48 48 2.0 2.0 0.00 0.00 0.00 97 102.0
20260502122702 48 30 0.0 1.0 0.00 0.00 0.00 97 102.0
20260502122203 48 32 1.0 2.0 0.00 0.00 0.00 97 102.0
20260502121703 47 288 1.0 2.0 0.00 0.00 0.00 98 102.0
20260502121203 47 250 1.0 1.0 0.00 0.00 0.00 98 102.0
20260502120702 47 249 0.0 2.0 0.00 0.00 0.00 98 102.0
20260502120202 47 297 1.0 2.0 0.00 0.00 0.00 98 102.0
20260502115702 47 59 0.0 2.0 0.00 0.00 0.00 98 102.0
20260502115202 47 16 1.0 1.0 0.00 0.00 0.00 97 102.0
20260502114202 47 336 0.0 1.0 0.00 0.00 0.00 97 101.9
20260502113702 47 322 0.0 1.0 0.00 0.00 0.00 97 101.9
20260502113202 47 60 0.0 1.0 0.00 0.00 0.00 97 101.9
20260502111702 48 302 1.0 2.0 0.00 0.00 0.00 96 101.9
20260502111202 48 279 0.0 1.0 0.00 0.00 0.00 96 101.9
20260502110702 48 277 0.0 1.0 0.00 0.00 0.00 96 101.9
20260502110202 48 39 1.0 2.0 0.00 0.00 0.00 95 101.9
20260502105703 48 126 0.0 1.0 0.00 0.00 0.00 95 101.9
20260502105202 49 137 0.0 1.0 0.00 0.00 0.00 95 101.9
20260502104702 49 149 0.0 1.0 0.00 0.00 0.00 95 101.9
20260502104203 49 285 0.0 1.0 0.00 0.00 0.00 94 101.9
20260502103702 49 306 2.0 2.0 0.00 0.00 0.00 94 101.9
20260502103202 49 269 0.0 2.0 0.00 0.00 0.00 93 101.8
20260502102702 49 275 0.0 2.0 0.00 0.00 0.00 93 101.8
20260502102203 49 56 1.0 3.0 0.00 0.00 0.00 93 101.8
20260502101702 50 331 0.0 4.0 0.00 0.00 0.00 93 101.8
20260502101202 50 84 1.0 2.0 0.00 0.00 0.00 93 101.8
20260502100702 50 27 4.0 4.0 0.00 0.00 0.00 93 101.8
20260502100202 50 2 1.0 4.0 0.00 0.00 0.00 93 101.8
20260502091202 50 3 1.0 3.0 0.00 0.00 0.00 95 101.7
20260502090702 50 0 1.0 4.0 0.00 0.00 0.00 95 101.7
20260502090202 50 47 2.0 5.0 0.00 0.00 0.00 95 101.8
20260502071202 50 6 1.0 4.0 0.00 0.00 0.00 97 101.7
20260502070703 50 37 3.0 3.0 0.00 0.00 0.00 97 101.7
20260502070202 50 353 2.0 3.0 0.00 0.00 0.00 97 101.7
20260502065702 50 0 1.0 3.0 0.00 0.00 0.00 97 101.7
20260502065202 50 46 1.0 2.0 0.00 0.00 0.00 97 101.7
20260502064703 50 25 0.0 2.0 0.00 0.00 0.00 96 101.7
20260502064202 50 18 0.0 1.0 0.00 0.00 0.00 96 101.7
20260502063701 50 291 0.0 2.0 0.00 0.00 0.00 96 101.7
20260502062202 51 68 0.0 4.0 0.00 0.00 0.00 96 101.7
20260502061202 51 193 0.0 3.0 0.00 0.00 0.00 96 101.7
20260502060702 51 15 0.0 2.0 0.00 0.00 0.00 96 101.7
20260502060202 51 13 1.0 2.0 0.00 0.00 0.00 96 101.7
20260502055202 51 21 2.0 2.0 0.00 0.00 0.00 97 101.7
20260502054202 51 7 1.0 3.0 0.00 0.00 0.00 97 101.7
20260502053202 51 27 1.0 2.0 0.00 0.00 0.00 97 101.7
20260502052702 51 60 1.0 2.0 0.00 0.00 0.00 97 101.7
20260502052202 51 69 0.0 2.0 0.00 0.00 0.00 97 101.7
20260502051702 51 283 0.0 2.0 0.00 0.00 0.00 97 101.7
20260502050202 52 291 0.0 2.0 0.00 0.00 0.00 97 101.7
20260502045702 52 34 1.0 2.0 0.00 0.00 0.00 97 101.7
20260502044203 52 49 1.0 2.0 0.00 0.00 0.00 96 101.7
20260502043702 52 313 0.0 2.0 0.00 0.00 0.00 96 101.7
20260502042702 52 129 1.0 3.0 0.00 0.00 0.00 95 101.7
20260502041702 53 25 0.0 2.0 0.00 0.00 0.00 95 101.7
20260502041202 53 114 1.0 2.0 0.00 0.00 0.00 94 101.7
20260502040702 53 41 1.0 2.0 0.00 0.00 0.00 94 101.7
20260502040202 53 43 3.0 3.0 0.00 0.00 0.00 93 101.7
20260502035702 53 18 1.0 3.0 0.00 0.00 0.00 93 101.7
20260502035202 54 50 2.0 4.0 0.00 0.00 0.00 92 101.7
20260502034703 54 6 1.0 6.0 0.00 0.00 0.00 92 101.7
20260502034202 54 31 2.0 5.0 0.00 0.00 0.00 92 101.7
20260502033702 54 290 2.0 6.0 0.00 0.00 0.00 93 101.7
20260502033202 54 9 4.0 4.0 0.00 0.00 0.00 93 101.7
20260502032702 54 23 3.0 5.0 0.00 0.00 0.00 93 101.7
20260502032203 53 9 2.0 6.0 0.00 0.00 0.00 93 101.7
20260502031202 53 34 2.0 4.0 0.00 0.00 0.00 93 101.7
20260502030702 53 34 2.0 4.0 0.00 0.00 0.00 93 101.7
20260502030203 53 69 1.0 2.0 0.00 0.00 0.00 94 101.6
20260502025706 53 0 2.0 3.0 0.00 0.00 0.00 93 101.6
20260502025204 53 55 3.0 5.0 0.00 0.00 0.00 93 101.6
20260502024702 53 45 1.0 5.0 0.00 0.00 0.00 93 101.6